EW5401 Weather Reports


Display with metric or nautical units.
time (UTC)temp
F
wind
direction
speed
MPH
gust
MPH
rain 1hr
in
rain 24hr
in
rain mn
in
humidity
%
barometer
mb
20260904203008 80 269 1.0 12.0 0.00 0.00 0.00 60 1009.1
20260904201507 80 318 3.0 9.0 0.00 0.00 0.00 60 1009.1
20260904200009 80 268 2.0 7.0 0.00 0.00 0.00 61 1009.3
20260904194508 79 311 2.0 10.0 0.00 0.00 0.00 60 1009.4
20260904193003 80 316 5.0 10.0 0.00 0.00 0.00 60 1009.3
20260904191600 78 46 2.0 10.0 0.00 0.00 0.00 62 1009.4
20260904190059 77 92 4.0 9.0 0.00 0.00 0.00 65 1009.5
20260904184611 78 294 1.0 9.0 0.00 0.00 0.00 62 1009.7
20260904183058 77 306 2.0 8.0 0.00 0.00 0.00 65 1009.9
20260904181610 78 344 3.0 9.0 0.00 0.00 0.00 63 1010.1
20260904180113 78 323 3.0 8.0 0.00 0.00 0.00 62 1010.1
20260904174609 77 340 3.0 8.0 0.00 0.00 0.00 63 1010.0
20260904173059 78 349 2.0 8.0 0.00 0.00 0.00 62 1010.0
20260904171554 78 75 2.0 8.0 0.00 0.00 0.00 61 1009.6
20260904170054 77 315 4.0 12.0 0.00 0.00 0.00 66 1009.8
20260904164551 77 340 4.0 12.0 0.00 0.00 0.00 67 1010.0
20260904163101 78 325 2.0 8.0 0.00 0.00 0.00 68 1010.1
20260904161549 77 339 3.0 10.0 0.00 0.00 0.00 71 1010.3
20260904160045 76 274 2.0 9.0 0.00 0.00 0.00 70 1010.4
20260904154544 76 250 5.0 12.0 0.00 0.00 0.00 72 1010.5
20260904153048 76 350 4.0 10.0 0.00 0.00 0.00 70 1010.7
20260904151542 76 30 4.0 12.0 0.00 0.00 0.00 69 1010.9
20260904150049 76 269 3.0 11.0 0.00 0.00 0.00 74 1010.9
20260904144539 75 302 2.0 11.0 0.00 0.00 0.00 76 1010.8
20260904143038 75 355 3.0 9.0 0.00 0.00 0.00 77 1010.7
20260904141532 73 250 4.0 9.0 0.00 0.00 0.00 77 1010.9
20260904140036 73 286 3.0 12.0 0.00 0.00 0.00 81 1010.7
20260904134526 72 71 1.0 7.0 0.00 0.00 0.00 83 1010.6
20260904133021 69 28 3.0 7.0 0.00 0.00 0.00 87 1010.7
20260904131519 68 345 2.0 9.0 0.00 0.00 0.00 91 1010.9
20260904130018 67 276 1.0 5.0 0.00 0.00 0.00 96 1010.8
20260904124517 67 53 1.0 2.0 0.00 0.00 0.00 96 1010.8
20260904123017 67 53 0.0 1.0 0.00 0.00 0.00 97 1010.8
20260904121517 66 308 1.0 2.0 0.00 0.00 0.00 97 1010.7
20260904120017 65 308 0.0 1.0 0.00 0.00 0.00 96 1010.6
20260904114515 65 14 0.0 2.0 0.00 0.00 0.00 96 1010.4
20260904113019 65 14 0.0 3.0 0.00 0.00 0.00 96 1010.4
20260904111516 65 14 0.0 3.0 0.00 0.00 0.00 96 1010.2
20260904110022 65 38 1.0 2.0 0.00 0.00 0.00 96 1010.2
20260904104513 66 37 1.0 3.0 0.00 0.00 0.00 96 1009.9
20260904103015 66 55 1.0 3.0 0.00 0.00 0.00 96 1009.8
20260904101507 66 78 0.0 2.0 0.00 0.00 0.00 96 1009.8
20260904100006 67 78 0.0 2.0 0.00 0.00 0.00 96 1009.8
20260904094504 67 78 0.0 3.0 0.00 0.00 0.00 96 1009.7
20260904093003 67 78 0.0 1.0 0.00 0.00 0.00 96 1009.6
20260904091502 67 78 0.0 2.0 0.00 0.00 0.00 96 1009.6
20260904090101 67 78 0.0 2.0 0.00 0.00 0.00 96 1009.6
20260904084601 68 78 0.0 0.0 0.00 0.00 0.00 96 1009.5
20260904083058 68 78 0.0 2.0 0.00 0.00 0.00 96 1009.1
20260904081558 68 78 0.0 2.0 0.00 0.00 0.00 96 1009.1
20260904074556 68 46 0.0 2.0 0.00 0.00 0.00 96 1009.2
20260904073055 68 46 0.0 0.0 0.00 0.00 0.00 96 1009.4
20260904071554 68 46 0.0 1.0 0.00 0.00 0.00 96 1009.4
20260904070052 68 46 2.0 3.0 0.00 0.00 0.00 95 1009.7
20260904064548 68 43 1.0 3.0 0.00 0.00 0.00 95 1010.0
20260904063046 68 281 0.0 2.0 0.00 0.00 0.00 95 1010.1
20260904061552 68 281 0.0 2.0 0.00 0.00 0.00 95 1010.3
20260904060043 69 281 0.0 2.0 0.00 0.00 0.00 95 1010.2
20260904054543 69 281 0.0 0.0 0.00 0.09 0.00 95 1010.2
20260904053041 69 281 0.0 3.0 0.00 0.09 0.00 95 1010.2
20260904051547 69 281 1.0 2.0 0.00 0.09 0.00 95 1010.3
20260904050039 69 281 0.0 3.0 0.00 0.09 0.00 95 1010.5
20260904044536 69 281 0.0 0.0 0.00 0.18 0.00 95 1010.7
20260904043034 69 281 0.0 0.0 0.00 0.18 0.00 95 1010.7
20260904041532 69 281 0.0 0.0 0.00 0.18 0.00 95 1010.9
20260904040031 69 281 0.0 3.0 0.00 0.18 0.00 95 1010.9
20260904034545 69 281 0.0 0.0 0.00 0.18 0.18 95 1010.9
20260904033030 69 281 0.0 0.0 0.00 0.18 0.18 94 1011.0
20260904031530 69 281 0.0 0.0 0.00 0.18 0.18 94 1011.1
20260904030030 69 281 0.0 0.0 0.00 0.18 0.18 94 1011.0
20260904024528 69 281 0.0 2.0 0.00 0.18 0.18 94 1011.3
20260904023027 69 281 0.0 0.0 0.00 0.18 0.18 94 1011.5
20260904021528 69 281 0.0 0.0 0.00 0.18 0.18 94 1011.5
20260904020027 69 281 0.0 0.0 0.00 0.18 0.18 93 1011.5
20260904014526 69 281 0.0 0.0 0.00 0.18 0.18 92 1011.7
20260904013026 70 281 0.0 0.0 0.00 0.18 0.18 92 1011.7
20260904011554 70 281 0.0 0.0 0.00 0.18 0.18 92 1011.7
20260904010028 71 281 0.0 0.0 0.00 0.18 0.18 92 1011.5
20260904004524 71 281 0.0 0.0 0.00 0.18 0.18 91 1011.3
20260904003024 72 281 0.0 0.0 0.00 0.18 0.18 91 1011.4
20260904001524 72 281 0.0 0.0 0.00 0.18 0.18 90 1011.4
20260904000036 73 281 0.0 0.0 0.00 0.18 0.18 89 1011.4
20260903234535 74 281 0.0 0.0 0.00 0.18 0.18 88 1010.9
20260903233022 75 281 0.0 0.0 0.00 0.18 0.18 86 1010.7
20260903231522 76 281 0.0 1.0 0.00 0.18 0.18 85 1010.7
20260903230031 77 281 0.0 0.0 0.00 0.18 0.18 84 1010.8
20260903224523 78 281 0.0 0.0 0.00 0.18 0.18 82 1010.6
20260903223020 79 281 0.0 0.0 0.00 0.18 0.18 80 1010.4
20260903221520 80 281 0.0 0.0 0.00 0.18 0.18 77 1010.6
20260903220019 82 281 0.0 4.0 0.00 0.18 0.18 75 1010.6
20260903214523 83 312 0.0 4.0 0.00 0.18 0.18 71 1010.6
20260903213029 83 265 1.0 4.0 0.00 0.18 0.18 71 1010.6
20260903211519 83 274 2.0 5.0 0.00 0.18 0.18 71 1010.5
20260903210015 83 211 0.0 4.0 0.00 0.18 0.18 72 1010.8
20260903204516 83 311 1.0 5.0 0.00 0.18 0.18 74 1010.8